Location: Siratepeler Tepesi
(39.1042°N, 32.0781°E)
Time: 04:49:51
(UTC+00:00)

Ariane Rocket - Pass Details

Date: 11 April 2026
Orbit: 755 x 763 km, 98.4° (Epoch: 9 May)

Event Time Altitude Azimuth Distance (km) Brightness Sun altitude
Exits shadow 19:46:51 35° 335° (NNW) 1,203 4.4 -34.1°
Drops below altitude 10° 19:49:46 10° 343° (NNW) 2,288 6.2 -34.5°
Sets 19:52:05 0° 345° (NNW) 3,217 7.1 -34.7°
